Year,Month,Day,Hour,Minute,Value (Times are PST for temperature in C)
2007,04,06,00,00,9.10
2007,04,06,00,01,9.10
2007,04,06,00,02,9.10
2007,04,06,00,03,9.10
2007,04,06,00,04,9.10
2007,04,06,00,05,9.10
2007,04,06,00,06,9.10
2007,04,06,00,07,9.10
2007,04,06,00,08,9.20
2007,04,06,00,09,9.10
2007,04,06,00,10,9.10
2007,04,06,00,11,9.10
2007,04,06,00,12,9.10
2007,04,06,00,13,9.10
2007,04,06,00,14,9.10
2007,04,06,00,15,9.10
2007,04,06,00,16,9.10
2007,04,06,00,17,9.00
2007,04,06,00,18,9.00
2007,04,06,00,19,9.00
2007,04,06,00,20,9.00
2007,04,06,00,21,8.90
2007,04,06,00,22,8.90
2007,04,06,00,23,8.90
2007,04,06,00,24,8.90
2007,04,06,00,25,8.90
2007,04,06,00,26,9.00
2007,04,06,00,27,9.10
2007,04,06,00,28,9.10
2007,04,06,00,29,9.10
2007,04,06,00,30,9.10
2007,04,06,00,31,9.10
2007,04,06,00,32,9.10
2007,04,06,00,33,9.10
2007,04,06,00,34,9.10
2007,04,06,00,35,9.10
2007,04,06,00,36,9.10
2007,04,06,00,37,9.10
2007,04,06,00,38,9.10
2007,04,06,00,39,9.10
2007,04,06,00,40,9.10
2007,04,06,00,41,9.10
2007,04,06,00,42,9.10
2007,04,06,00,43,9.10
2007,04,06,00,44,9.10
2007,04,06,00,45,9.00
2007,04,06,00,46,9.00
2007,04,06,00,47,9.00
2007,04,06,00,48,9.00
2007,04,06,00,49,9.00
2007,04,06,00,50,8.90
2007,04,06,00,51,9.00
2007,04,06,00,52,9.00
2007,04,06,00,53,9.00
2007,04,06,00,54,9.00
2007,04,06,00,55,9.00
2007,04,06,00,56,9.00
2007,04,06,00,57,9.00
2007,04,06,00,58,9.00
2007,04,06,00,59,9.00
2007,04,06,01,00,9.00
2007,04,06,01,01,9.00
2007,04,06,01,02,9.00
2007,04,06,01,03,9.00
2007,04,06,01,04,9.00
2007,04,06,01,05,9.10
2007,04,06,01,06,9.10
2007,04,06,01,07,9.00
2007,04,06,01,08,9.00
2007,04,06,01,09,9.00
2007,04,06,01,10,8.90
2007,04,06,01,11,8.90
2007,04,06,01,12,8.90
2007,04,06,01,13,8.90
2007,04,06,01,14,8.90
2007,04,06,01,15,8.90
2007,04,06,01,16,8.90
2007,04,06,01,17,9.00
2007,04,06,01,18,9.00
2007,04,06,01,19,9.10
2007,04,06,01,20,9.10
2007,04,06,01,21,9.10
2007,04,06,01,22,9.10
2007,04,06,01,23,9.10
2007,04,06,01,24,9.10
2007,04,06,01,25,9.10
2007,04,06,01,26,9.10
2007,04,06,01,27,9.10
2007,04,06,01,28,9.10
2007,04,06,01,29,9.10
2007,04,06,01,30,9.00
2007,04,06,01,31,9.00
2007,04,06,01,32,9.00
2007,04,06,01,33,9.00
2007,04,06,01,34,9.00
2007,04,06,01,35,9.00
2007,04,06,01,36,9.00
2007,04,06,01,37,8.90
2007,04,06,01,38,8.90
2007,04,06,01,39,8.90
2007,04,06,01,40,8.90
2007,04,06,01,41,8.90
2007,04,06,01,42,8.90
2007,04,06,01,43,8.80
2007,04,06,01,44,8.80
2007,04,06,01,45,8.80
2007,04,06,01,46,8.80
2007,04,06,01,47,8.80
2007,04,06,01,48,8.90
2007,04,06,01,49,8.90
2007,04,06,01,50,8.90
2007,04,06,01,51,8.90
2007,04,06,01,52,8.90
2007,04,06,01,53,8.90
2007,04,06,01,54,8.90
2007,04,06,01,55,8.90
2007,04,06,01,56,8.90
2007,04,06,01,57,8.90
2007,04,06,01,58,8.80
2007,04,06,01,59,8.80
2007,04,06,02,00,8.80
2007,04,06,02,01,8.80
2007,04,06,02,02,8.80
2007,04,06,02,03,8.80
2007,04,06,02,04,8.80
2007,04,06,02,05,8.80
2007,04,06,02,06,8.80
2007,04,06,02,07,8.70
2007,04,06,02,08,8.70
2007,04,06,02,09,8.70
2007,04,06,02,10,8.70
2007,04,06,02,11,8.80
2007,04,06,02,12,8.80
2007,04,06,02,13,8.80
2007,04,06,02,14,8.80
2007,04,06,02,15,8.80
2007,04,06,02,16,8.80
2007,04,06,02,17,8.80
2007,04,06,02,18,8.80
2007,04,06,02,19,8.80
2007,04,06,02,20,8.80
2007,04,06,02,21,8.80
2007,04,06,02,22,8.80
2007,04,06,02,23,8.80
2007,04,06,02,24,8.80
2007,04,06,02,25,8.80
2007,04,06,02,26,8.80
2007,04,06,02,27,8.80
2007,04,06,02,28,8.80
2007,04,06,02,29,8.80
2007,04,06,02,30,8.80
2007,04,06,02,31,8.80
2007,04,06,02,32,8.80
2007,04,06,02,33,8.80
2007,04,06,02,34,8.80
2007,04,06,02,35,8.80
2007,04,06,02,36,8.80
2007,04,06,02,37,8.90
2007,04,06,02,38,8.90
2007,04,06,02,39,8.90
2007,04,06,02,40,8.90
2007,04,06,02,41,8.90
2007,04,06,02,42,8.90
2007,04,06,02,43,8.90
2007,04,06,02,44,8.80
2007,04,06,02,45,8.80
2007,04,06,02,46,8.80
2007,04,06,02,47,8.80
2007,04,06,02,48,8.80
2007,04,06,02,49,8.80
2007,04,06,02,50,8.80
2007,04,06,02,51,8.70
2007,04,06,02,52,8.70
2007,04,06,02,53,8.70
2007,04,06,02,54,8.70
2007,04,06,02,55,8.70
2007,04,06,02,56,8.70
2007,04,06,02,57,8.70
2007,04,06,02,58,8.70
2007,04,06,02,59,8.70
2007,04,06,03,00,8.70
2007,04,06,03,01,8.70
2007,04,06,03,02,8.70
2007,04,06,03,03,8.70
2007,04,06,03,04,8.70
2007,04,06,03,05,8.70
2007,04,06,03,06,8.70
2007,04,06,03,07,8.70
2007,04,06,03,08,8.70
2007,04,06,03,09,8.70
2007,04,06,03,10,8.70
2007,04,06,03,11,8.70
2007,04,06,03,12,8.70
2007,04,06,03,13,8.70
2007,04,06,03,14,8.70
2007,04,06,03,15,8.70
2007,04,06,03,16,8.70
2007,04,06,03,17,8.60
2007,04,06,03,18,8.60
2007,04,06,03,19,8.60
2007,04,06,03,20,8.50
2007,04,06,03,21,8.50
2007,04,06,03,22,8.50
2007,04,06,03,23,8.50
2007,04,06,03,24,8.40
2007,04,06,03,25,8.40
2007,04,06,03,26,8.40
2007,04,06,03,27,8.50
2007,04,06,03,28,8.40
2007,04,06,03,29,8.40
2007,04,06,03,30,8.40
2007,04,06,03,31,8.40
2007,04,06,03,32,8.40
2007,04,06,03,33,8.30
2007,04,06,03,34,8.30
2007,04,06,03,35,8.30
2007,04,06,03,36,8.30
2007,04,06,03,37,8.30
2007,04,06,03,38,8.30
2007,04,06,03,39,8.30
2007,04,06,03,40,8.20
2007,04,06,03,41,8.20
2007,04,06,03,42,8.20
2007,04,06,03,43,8.20
2007,04,06,03,44,8.20
2007,04,06,03,45,8.20
2007,04,06,03,46,8.20
2007,04,06,03,47,8.10
2007,04,06,03,48,8.10
2007,04,06,03,49,8.10
2007,04,06,03,50,8.10
2007,04,06,03,51,8.10
2007,04,06,03,52,8.10
2007,04,06,03,53,8.00
2007,04,06,03,54,8.00
2007,04,06,03,55,8.00
2007,04,06,03,56,8.00
2007,04,06,03,57,8.00
2007,04,06,03,58,8.00
2007,04,06,03,59,8.00
2007,04,06,04,00,8.00
2007,04,06,04,01,8.00
2007,04,06,04,02,8.00
2007,04,06,04,03,7.90
2007,04,06,04,04,7.90
2007,04,06,04,05,7.90
2007,04,06,04,06,7.90
2007,04,06,04,07,7.90
2007,04,06,04,08,7.80
2007,04,06,04,09,7.80
2007,04,06,04,10,7.80
2007,04,06,04,11,7.80
2007,04,06,04,12,7.80
2007,04,06,04,13,7.80
2007,04,06,04,14,7.80
2007,04,06,04,15,7.70
2007,04,06,04,16,7.70
2007,04,06,04,17,7.70
2007,04,06,04,18,7.70
2007,04,06,04,19,7.70
2007,04,06,04,20,7.70
2007,04,06,04,21,7.70
2007,04,06,04,22,7.70
2007,04,06,04,23,7.70
2007,04,06,04,24,7.70
2007,04,06,04,25,7.70
2007,04,06,04,26,7.70
2007,04,06,04,27,7.70
2007,04,06,04,28,7.70
2007,04,06,04,29,7.70
2007,04,06,04,30,7.70
2007,04,06,04,31,7.60
2007,04,06,04,32,7.60
2007,04,06,04,33,7.60
2007,04,06,04,34,7.60
2007,04,06,04,35,7.60
2007,04,06,04,36,7.60
2007,04,06,04,37,7.60
2007,04,06,04,38,7.60
2007,04,06,04,39,7.50
2007,04,06,04,40,7.50
2007,04,06,04,41,7.50
2007,04,06,04,42,7.50
2007,04,06,04,43,7.50
2007,04,06,04,44,7.50
2007,04,06,04,45,7.50
2007,04,06,04,46,7.40
2007,04,06,04,47,7.40
2007,04,06,04,48,7.40
2007,04,06,04,49,7.40
2007,04,06,04,50,7.40
2007,04,06,04,51,7.40
2007,04,06,04,52,7.40
2007,04,06,04,53,7.40
2007,04,06,04,54,7.40
2007,04,06,04,55,7.40
2007,04,06,04,56,7.50
2007,04,06,04,57,7.50
2007,04,06,04,58,7.50
2007,04,06,04,59,7.60
2007,04,06,05,00,7.60
2007,04,06,05,01,7.50
2007,04,06,05,02,7.50
2007,04,06,05,03,7.50
2007,04,06,05,04,7.50
2007,04,06,05,05,7.40
2007,04,06,05,06,7.40
2007,04,06,05,07,7.40
2007,04,06,05,08,7.40
2007,04,06,05,09,7.50
2007,04,06,05,10,7.40
2007,04,06,05,11,7.40
2007,04,06,05,12,7.40
2007,04,06,05,13,7.40
2007,04,06,05,14,7.50
2007,04,06,05,15,7.50
2007,04,06,05,16,7.50
2007,04,06,05,17,7.50
2007,04,06,05,18,7.50
2007,04,06,05,19,7.50
2007,04,06,05,20,7.50
2007,04,06,05,21,7.50
2007,04,06,05,22,7.50
2007,04,06,05,23,7.50
2007,04,06,05,24,7.50
2007,04,06,05,25,7.50
2007,04,06,05,26,7.50
2007,04,06,05,27,7.50
2007,04,06,05,28,7.50
2007,04,06,05,29,7.60
2007,04,06,05,30,7.60
2007,04,06,05,31,7.60
2007,04,06,05,32,7.60
2007,04,06,05,33,7.60
2007,04,06,05,34,7.60
2007,04,06,05,35,7.60
2007,04,06,05,36,7.60
2007,04,06,05,37,7.60
2007,04,06,05,38,7.60
2007,04,06,05,39,7.60
2007,04,06,05,40,7.60
2007,04,06,05,41,7.60
2007,04,06,05,42,7.60
2007,04,06,05,43,7.60
2007,04,06,05,44,7.60
2007,04,06,05,45,7.60
2007,04,06,05,46,7.60
2007,04,06,05,47,7.60
2007,04,06,05,48,7.60
2007,04,06,05,49,7.60
2007,04,06,05,50,7.60
2007,04,06,05,51,7.60
2007,04,06,05,52,7.60
2007,04,06,05,53,7.60
2007,04,06,05,54,7.60
2007,04,06,05,55,7.60
2007,04,06,05,56,7.60
2007,04,06,05,57,7.60
2007,04,06,05,58,7.60
2007,04,06,05,59,7.60
2007,04,06,06,00,7.60
2007,04,06,06,01,7.60
2007,04,06,06,02,7.60
2007,04,06,06,03,7.50
2007,04,06,06,04,7.50
2007,04,06,06,05,7.50
2007,04,06,06,06,7.50
2007,04,06,06,07,7.50
2007,04,06,06,08,7.50
2007,04,06,06,09,7.50
2007,04,06,06,10,7.40
2007,04,06,06,11,7.40
2007,04,06,06,12,7.40
2007,04,06,06,13,7.40
2007,04,06,06,14,7.40
2007,04,06,06,15,7.40
2007,04,06,06,16,7.40
2007,04,06,06,17,7.50
2007,04,06,06,18,7.50
2007,04,06,06,19,7.50
2007,04,06,06,20,7.60
2007,04,06,06,21,7.50
2007,04,06,06,22,7.50
2007,04,06,06,23,7.50
2007,04,06,06,24,7.50
2007,04,06,06,25,7.50
2007,04,06,06,26,7.50
2007,04,06,06,27,7.50
2007,04,06,06,28,7.50
2007,04,06,06,29,7.50
2007,04,06,06,30,7.50
2007,04,06,06,31,7.50
2007,04,06,06,32,7.50
2007,04,06,06,33,7.50
2007,04,06,06,34,7.50
2007,04,06,06,35,7.60
2007,04,06,06,36,7.60
2007,04,06,06,37,7.60
2007,04,06,06,38,7.60
2007,04,06,06,39,7.60
2007,04,06,06,40,7.60
2007,04,06,06,41,7.60
2007,04,06,06,42,7.60
2007,04,06,06,43,7.60
2007,04,06,06,44,7.60
2007,04,06,06,45,7.60
2007,04,06,06,46,7.50
2007,04,06,06,47,7.50
2007,04,06,06,48,7.50
2007,04,06,06,49,7.50
2007,04,06,06,50,7.50
2007,04,06,06,51,7.60
2007,04,06,06,52,7.60
2007,04,06,06,53,7.60
2007,04,06,06,54,7.60
2007,04,06,06,55,7.60
2007,04,06,06,56,7.60
2007,04,06,06,57,7.50
2007,04,06,06,58,7.50
2007,04,06,06,59,7.50
2007,04,06,07,00,7.50
2007,04,06,07,01,7.50
2007,04,06,07,02,7.50
2007,04,06,07,03,7.50
2007,04,06,07,04,7.50
2007,04,06,07,05,7.50
2007,04,06,07,06,7.60
2007,04,06,07,07,7.60
2007,04,06,07,08,7.60
2007,04,06,07,09,7.60
2007,04,06,07,10,7.60
2007,04,06,07,11,7.60
2007,04,06,07,12,7.60
2007,04,06,07,13,7.60
2007,04,06,07,14,7.60
2007,04,06,07,15,7.60
2007,04,06,07,16,7.60
2007,04,06,07,17,7.60
2007,04,06,07,18,7.70
2007,04,06,07,19,7.70
2007,04,06,07,20,7.70
2007,04,06,07,21,7.70
2007,04,06,07,22,7.70
2007,04,06,07,23,7.70
2007,04,06,07,24,7.70
2007,04,06,07,25,7.70
2007,04,06,07,26,7.70
2007,04,06,07,27,7.70
2007,04,06,07,28,7.70
2007,04,06,07,29,7.70
2007,04,06,07,30,7.70
2007,04,06,07,31,7.70
2007,04,06,07,32,7.70
2007,04,06,07,33,7.70
2007,04,06,07,34,7.70
2007,04,06,07,35,7.70
2007,04,06,07,36,7.70
2007,04,06,07,37,7.70
2007,04,06,07,38,7.80
2007,04,06,07,39,7.80
2007,04,06,07,40,7.80
2007,04,06,07,41,7.80
2007,04,06,07,42,7.80
2007,04,06,07,43,7.80
2007,04,06,07,44,7.80
2007,04,06,07,45,7.80
2007,04,06,07,46,7.80
2007,04,06,07,47,7.80
2007,04,06,07,48,7.90
2007,04,06,07,49,7.90
2007,04,06,07,50,7.90
2007,04,06,07,51,7.90
2007,04,06,07,52,8.00
2007,04,06,07,53,8.00
2007,04,06,07,54,8.00
2007,04,06,07,55,8.00
2007,04,06,07,56,8.10
2007,04,06,07,57,8.10
2007,04,06,07,58,8.10
2007,04,06,07,59,8.10
2007,04,06,08,00,8.20
2007,04,06,08,01,8.20
2007,04,06,08,02,8.20
2007,04,06,08,03,8.20
2007,04,06,08,04,8.20
2007,04,06,08,05,8.20
2007,04,06,08,06,8.20
2007,04,06,08,07,8.20
2007,04,06,08,08,8.20
2007,04,06,08,09,8.20
2007,04,06,08,10,8.20
2007,04,06,08,11,8.20
2007,04,06,08,12,8.20
2007,04,06,08,13,8.20
2007,04,06,08,14,8.20
2007,04,06,08,15,8.30
2007,04,06,08,16,8.30
2007,04,06,08,17,8.30
2007,04,06,08,18,8.30
2007,04,06,08,19,8.30
2007,04,06,08,20,8.30
2007,04,06,08,21,8.30
2007,04,06,08,22,8.30
2007,04,06,08,23,8.30
2007,04,06,08,24,8.30
2007,04,06,08,25,8.30
2007,04,06,08,26,8.30
2007,04,06,08,27,8.30
2007,04,06,08,28,8.30
2007,04,06,08,29,8.40
2007,04,06,08,30,8.40
2007,04,06,08,31,8.40
2007,04,06,08,32,8.40
2007,04,06,08,33,8.50
2007,04,06,08,34,8.50
2007,04,06,08,35,8.60
2007,04,06,08,36,8.60
2007,04,06,08,37,8.60
2007,04,06,08,38,8.70
2007,04,06,08,39,8.70
2007,04,06,08,40,8.70
2007,04,06,08,41,8.80
2007,04,06,08,42,8.80
2007,04,06,08,43,8.90
2007,04,06,08,44,8.90
2007,04,06,08,45,8.90
2007,04,06,08,46,8.90
2007,04,06,08,47,9.00
2007,04,06,08,48,9.00
2007,04,06,08,49,9.00
2007,04,06,08,50,9.10
2007,04,06,08,51,9.10
2007,04,06,08,52,9.20
2007,04,06,08,53,9.20
2007,04,06,08,54,9.20
2007,04,06,08,55,9.30
2007,04,06,08,56,9.30
2007,04,06,08,57,9.30
2007,04,06,08,58,9.40
2007,04,06,08,59,9.50
2007,04,06,09,00,9.50
2007,04,06,09,01,9.60
2007,04,06,09,02,9.60
2007,04,06,09,03,9.70
2007,04,06,09,04,9.70
2007,04,06,09,05,9.80
2007,04,06,09,06,9.90
2007,04,06,09,07,10.00
2007,04,06,09,08,10.10
2007,04,06,09,09,10.20
2007,04,06,09,10,10.20
2007,04,06,09,11,10.30
2007,04,06,09,12,10.40
2007,04,06,09,13,10.50
2007,04,06,09,14,10.50
2007,04,06,09,15,10.60
2007,04,06,09,16,10.70
2007,04,06,09,17,10.80
2007,04,06,09,18,10.80
2007,04,06,09,19,10.90
2007,04,06,09,20,10.90
2007,04,06,09,21,11.00
2007,04,06,09,22,11.10
2007,04,06,09,23,11.10
2007,04,06,09,24,11.10
2007,04,06,09,25,11.20
2007,04,06,09,26,11.20
2007,04,06,09,27,11.30
2007,04,06,09,28,11.30
2007,04,06,09,29,11.30
2007,04,06,09,30,11.30
2007,04,06,09,31,11.30
2007,04,06,09,32,11.30
2007,04,06,09,33,11.30
2007,04,06,09,34,11.30
2007,04,06,09,35,11.40
2007,04,06,09,36,11.40
2007,04,06,09,37,11.40
2007,04,06,09,38,11.50
2007,04,06,09,39,11.50
2007,04,06,09,40,11.50
2007,04,06,09,41,11.50
2007,04,06,09,42,11.60
2007,04,06,09,43,11.60
2007,04,06,09,44,11.60
2007,04,06,09,45,11.60
2007,04,06,09,46,11.70
2007,04,06,09,47,11.70
2007,04,06,09,48,11.80
2007,04,06,09,49,11.90
2007,04,06,09,50,11.90
2007,04,06,09,51,12.00
2007,04,06,09,52,12.10
2007,04,06,09,53,12.20
2007,04,06,09,54,12.20
2007,04,06,09,55,12.20
2007,04,06,09,56,12.20
2007,04,06,09,57,12.20
2007,04,06,09,58,12.20
2007,04,06,09,59,12.20
2007,04,06,10,00,12.10
2007,04,06,10,01,12.10
2007,04,06,10,02,12.10
2007,04,06,10,03,12.10
2007,04,06,10,04,12.10
2007,04,06,10,05,12.10
2007,04,06,10,06,12.10
2007,04,06,10,07,12.10
2007,04,06,10,08,12.10
2007,04,06,10,09,12.10
2007,04,06,10,10,12.10
2007,04,06,10,11,12.20
2007,04,06,10,12,12.20
2007,04,06,10,13,12.20
2007,04,06,10,14,12.20
2007,04,06,10,15,12.20
2007,04,06,10,16,12.20
2007,04,06,10,17,12.30
2007,04,06,10,18,12.30
2007,04,06,10,19,12.40
2007,04,06,10,20,12.50
2007,04,06,10,21,12.60
2007,04,06,10,22,12.60
2007,04,06,10,23,12.70
2007,04,06,10,24,12.80
2007,04,06,10,25,12.80
2007,04,06,10,26,12.90
2007,04,06,10,27,13.00
2007,04,06,10,28,13.10
2007,04,06,10,29,13.10
2007,04,06,10,30,13.10
2007,04,06,10,31,13.10
2007,04,06,10,32,13.10
2007,04,06,10,33,13.10
2007,04,06,10,34,13.10
2007,04,06,10,35,13.10
2007,04,06,10,36,13.10
2007,04,06,10,37,13.10
2007,04,06,10,38,13.20
2007,04,06,10,39,13.20
2007,04,06,10,40,13.20
2007,04,06,10,41,13.10
2007,04,06,10,42,13.10
2007,04,06,10,43,13.10
2007,04,06,10,44,13.20
2007,04,06,10,45,13.20
2007,04,06,10,46,13.20
2007,04,06,10,47,13.20
2007,04,06,10,48,13.30
2007,04,06,10,49,13.40
2007,04,06,10,50,13.40
2007,04,06,10,51,13.50
2007,04,06,10,52,13.60
2007,04,06,10,53,13.70
2007,04,06,10,54,13.80
2007,04,06,10,55,13.90
2007,04,06,10,56,14.00
2007,04,06,10,57,14.10
2007,04,06,10,58,14.10
2007,04,06,10,59,14.20
2007,04,06,11,00,14.30
2007,04,06,11,01,14.30
2007,04,06,11,02,14.40
2007,04,06,11,03,14.50
2007,04,06,11,04,14.50
2007,04,06,11,05,14.60
2007,04,06,11,06,14.60
2007,04,06,11,07,14.60
2007,04,06,11,08,14.60
2007,04,06,11,09,14.70
2007,04,06,11,10,14.70
2007,04,06,11,11,14.70
2007,04,06,11,12,14.70
2007,04,06,11,13,14.80
2007,04,06,11,14,14.90
2007,04,06,11,15,15.00
2007,04,06,11,16,15.00
2007,04,06,11,17,15.00
2007,04,06,11,18,15.00
2007,04,06,11,19,15.00
2007,04,06,11,20,15.10
2007,04,06,11,21,15.20
2007,04,06,11,22,15.20
2007,04,06,11,23,15.10
2007,04,06,11,24,15.10
2007,04,06,11,25,15.00
2007,04,06,11,26,15.00
2007,04,06,11,27,14.90
2007,04,06,11,28,14.80
2007,04,06,11,29,14.80
2007,04,06,11,30,14.80
2007,04,06,11,31,14.80
2007,04,06,11,32,14.80
2007,04,06,11,33,14.90
2007,04,06,11,34,15.00
2007,04,06,11,35,15.00
2007,04,06,11,36,15.00
2007,04,06,11,37,15.00
2007,04,06,11,38,15.00
2007,04,06,11,39,15.00
2007,04,06,11,40,15.00
2007,04,06,11,41,15.00
2007,04,06,11,42,15.00
2007,04,06,11,43,15.00
2007,04,06,11,44,15.00
2007,04,06,11,45,15.00
2007,04,06,11,46,15.00
2007,04,06,11,47,15.00
2007,04,06,11,48,15.00
2007,04,06,11,49,15.00
2007,04,06,11,50,15.00
2007,04,06,11,51,14.90
2007,04,06,11,52,14.90
2007,04,06,11,53,14.80
2007,04,06,11,54,14.70
2007,04,06,11,55,14.70
2007,04,06,11,56,14.70
2007,04,06,11,57,14.70
2007,04,06,11,58,14.70
2007,04,06,11,59,14.70
2007,04,06,12,00,14.70
2007,04,06,12,01,14.70
2007,04,06,12,02,14.70
2007,04,06,12,03,14.70
2007,04,06,12,04,14.70
2007,04,06,12,05,14.70
2007,04,06,12,06,14.70
2007,04,06,12,07,14.70
2007,04,06,12,08,14.70
2007,04,06,12,09,14.80
2007,04,06,12,10,14.90
2007,04,06,12,11,15.00
2007,04,06,12,12,15.00
2007,04,06,12,13,15.00
2007,04,06,12,14,15.00
2007,04,06,12,15,15.10
2007,04,06,12,16,15.20
2007,04,06,12,17,15.20
2007,04,06,12,18,15.30
2007,04,06,12,19,15.30
2007,04,06,12,20,15.20
2007,04,06,12,21,15.20
2007,04,06,12,22,15.20
2007,04,06,12,23,15.20
2007,04,06,12,24,15.20
2007,04,06,12,25,15.20
2007,04,06,12,26,15.20
2007,04,06,12,27,15.20
2007,04,06,12,28,15.30
2007,04,06,12,29,15.30
2007,04,06,12,30,15.30
2007,04,06,12,31,15.30
2007,04,06,12,32,15.20
2007,04,06,12,33,15.20
2007,04,06,12,34,15.10
2007,04,06,12,35,15.00
2007,04,06,12,36,15.00
2007,04,06,12,37,15.00
2007,04,06,12,38,14.90
2007,04,06,12,39,14.80
2007,04,06,12,40,14.70
2007,04,06,12,41,14.60
2007,04,06,12,42,14.50
2007,04,06,12,43,14.40
2007,04,06,12,44,14.30
2007,04,06,12,45,14.30
2007,04,06,12,46,14.20
2007,04,06,12,47,14.20
2007,04,06,12,48,14.30
2007,04,06,12,49,14.30
2007,04,06,12,50,14.30
2007,04,06,12,51,14.30
2007,04,06,12,52,14.30
2007,04,06,12,53,14.30
2007,04,06,12,54,14.30
2007,04,06,12,55,14.30
2007,04,06,12,56,14.30
2007,04,06,12,57,14.30
2007,04,06,12,58,14.20
2007,04,06,12,59,14.20
2007,04,06,13,00,14.20
2007,04,06,13,01,14.10
2007,04,06,13,02,14.10
2007,04,06,13,03,14.10
2007,04,06,13,04,14.20
2007,04,06,13,05,14.20
2007,04,06,13,06,14.20
2007,04,06,13,07,14.20
2007,04,06,13,08,14.20
2007,04,06,13,09,14.20
2007,04,06,13,10,14.30
2007,04,06,13,11,14.30
2007,04,06,13,12,14.30
2007,04,06,13,13,14.30
2007,04,06,13,14,14.30
2007,04,06,13,15,14.40
2007,04,06,13,16,14.40
2007,04,06,13,17,14.40
2007,04,06,13,18,14.40
2007,04,06,13,19,14.40
2007,04,06,13,20,14.40
2007,04,06,13,21,14.40
2007,04,06,13,22,14.40
2007,04,06,13,23,14.40
2007,04,06,13,24,14.40
2007,04,06,13,25,14.50
2007,04,06,13,26,14.50
2007,04,06,13,27,14.50
2007,04,06,13,28,14.60
2007,04,06,13,29,14.60
2007,04,06,13,30,14.60
2007,04,06,13,31,14.70
2007,04,06,13,32,14.70
2007,04,06,13,33,14.70
2007,04,06,13,34,14.70
2007,04,06,13,35,14.70
2007,04,06,13,36,14.70
2007,04,06,13,37,14.60
2007,04,06,13,38,14.60
2007,04,06,13,39,14.60
2007,04,06,13,40,14.60
2007,04,06,13,41,14.60
2007,04,06,13,42,14.60
2007,04,06,13,43,14.60
2007,04,06,13,44,14.50
2007,04,06,13,45,14.40
2007,04,06,13,46,14.40
2007,04,06,13,47,14.30
2007,04,06,13,48,14.30
2007,04,06,13,49,14.30
2007,04,06,13,50,14.30
2007,04,06,13,51,14.30
2007,04,06,13,52,14.30
2007,04,06,13,53,14.30
2007,04,06,13,54,14.30
2007,04,06,13,55,14.30
2007,04,06,13,56,14.30
2007,04,06,13,57,14.40
2007,04,06,13,58,14.40
2007,04,06,13,59,14.50
2007,04,06,14,00,14.50
2007,04,06,14,01,14.60
2007,04,06,14,02,14.60
2007,04,06,14,03,14.70
2007,04,06,14,04,14.70
2007,04,06,14,05,14.80
2007,04,06,14,06,14.80
2007,04,06,14,07,14.90
2007,04,06,14,08,15.00
2007,04,06,14,09,15.00
2007,04,06,14,10,15.00
2007,04,06,14,11,15.00
2007,04,06,14,12,15.00
2007,04,06,14,13,15.10
2007,04,06,14,14,15.20
2007,04,06,14,15,15.30
2007,04,06,14,16,15.30
2007,04,06,14,17,15.40
2007,04,06,14,18,15.40
2007,04,06,14,19,15.50
2007,04,06,14,20,15.60
2007,04,06,14,21,15.70
2007,04,06,14,22,15.80
2007,04,06,14,23,15.90
2007,04,06,14,24,15.90
2007,04,06,14,25,16.00
2007,04,06,14,26,16.10
2007,04,06,14,27,16.10
2007,04,06,14,28,16.20
2007,04,06,14,29,16.20
2007,04,06,14,30,16.20
2007,04,06,14,31,16.20
2007,04,06,14,32,16.10
2007,04,06,14,33,16.00
2007,04,06,14,34,15.90
2007,04,06,14,35,15.80
2007,04,06,14,36,15.80
2007,04,06,14,37,15.70
2007,04,06,14,38,15.70
2007,04,06,14,39,15.70
2007,04,06,14,40,15.70
2007,04,06,14,41,15.70
2007,04,06,14,42,15.80
2007,04,06,14,43,15.90
2007,04,06,14,44,16.00
2007,04,06,14,45,16.10
2007,04,06,14,46,16.20
2007,04,06,14,47,16.30
2007,04,06,14,48,16.40
2007,04,06,14,49,16.40
2007,04,06,14,50,16.40
2007,04,06,14,51,16.50
2007,04,06,14,52,16.40
2007,04,06,14,53,16.40
2007,04,06,14,54,16.40
2007,04,06,14,55,16.40
2007,04,06,14,56,16.40
2007,04,06,14,57,16.40
2007,04,06,14,58,16.40
2007,04,06,14,59,16.40
2007,04,06,15,00,16.30
2007,04,06,15,01,16.30
2007,04,06,15,02,16.20
2007,04,06,15,03,16.20
2007,04,06,15,04,16.20
2007,04,06,15,05,16.20
2007,04,06,15,06,16.10
2007,04,06,15,07,16.10
2007,04,06,15,08,16.10
2007,04,06,15,09,16.10
2007,04,06,15,10,16.20
2007,04,06,15,11,16.20
2007,04,06,15,12,16.20
2007,04,06,15,13,16.30
2007,04,06,15,14,16.40
2007,04,06,15,15,16.40
2007,04,06,15,16,16.40
2007,04,06,15,17,16.50
2007,04,06,15,18,16.60
2007,04,06,15,19,16.70
2007,04,06,15,20,16.80
2007,04,06,15,21,16.80
2007,04,06,15,22,16.90
2007,04,06,15,23,16.90
2007,04,06,15,24,16.90
2007,04,06,15,25,17.00
2007,04,06,15,26,17.10
2007,04,06,15,27,17.10
2007,04,06,15,28,17.10
2007,04,06,15,29,17.20
2007,04,06,15,30,17.20
2007,04,06,15,31,17.20
2007,04,06,15,32,17.20
2007,04,06,15,33,17.20
2007,04,06,15,34,17.20
2007,04,06,15,35,17.20
2007,04,06,15,36,17.20
2007,04,06,15,37,17.10
2007,04,06,15,38,17.20
2007,04,06,15,39,17.20
2007,04,06,15,40,17.20
2007,04,06,15,41,17.30
2007,04,06,15,42,17.30
2007,04,06,15,43,17.40
2007,04,06,15,44,17.40
2007,04,06,15,45,17.40
2007,04,06,15,46,17.40
2007,04,06,15,47,17.50
2007,04,06,15,48,17.50
2007,04,06,15,49,17.60
2007,04,06,15,50,17.60
2007,04,06,15,51,17.60
2007,04,06,15,52,17.70
2007,04,06,15,53,17.70
2007,04,06,15,54,17.60
2007,04,06,15,55,17.60
2007,04,06,15,56,17.60
2007,04,06,15,57,17.60
2007,04,06,15,58,17.50
2007,04,06,15,59,17.40
2007,04,06,16,00,17.40
2007,04,06,16,01,17.30
2007,04,06,16,02,17.20
2007,04,06,16,03,17.10
2007,04,06,16,04,17.10
2007,04,06,16,05,17.00
2007,04,06,16,06,17.00
2007,04,06,16,07,17.00
2007,04,06,16,08,17.00
2007,04,06,16,09,17.10
2007,04,06,16,10,17.10
2007,04,06,16,11,17.10
2007,04,06,16,12,17.10
2007,04,06,16,13,17.20
2007,04,06,16,14,17.30
2007,04,06,16,15,17.40
2007,04,06,16,16,17.40
2007,04,06,16,17,17.40
2007,04,06,16,18,17.40
2007,04,06,16,19,17.40
2007,04,06,16,20,17.40
2007,04,06,16,21,17.40
2007,04,06,16,22,17.30
2007,04,06,16,23,17.30
2007,04,06,16,24,17.30
2007,04,06,16,25,17.30
2007,04,06,16,26,17.30
2007,04,06,16,27,17.30
2007,04,06,16,28,17.30
2007,04,06,16,29,17.40
2007,04,06,16,30,17.40
2007,04,06,16,31,17.40
2007,04,06,16,32,17.50
2007,04,06,16,33,17.50
2007,04,06,16,34,17.50
2007,04,06,16,35,17.60
2007,04,06,16,36,17.60
2007,04,06,16,37,17.60
2007,04,06,16,38,17.60
2007,04,06,16,39,17.60
2007,04,06,16,40,17.60
2007,04,06,16,41,17.60
2007,04,06,16,42,17.60
2007,04,06,16,43,17.60
2007,04,06,16,44,17.60
2007,04,06,16,45,17.60
2007,04,06,16,46,17.60
2007,04,06,16,47,17.70
2007,04,06,16,48,17.60
2007,04,06,16,49,17.70
2007,04,06,16,50,17.60
2007,04,06,16,51,17.60
2007,04,06,16,52,17.60
2007,04,06,16,53,17.60
2007,04,06,16,54,17.60
2007,04,06,16,55,17.60
2007,04,06,16,56,17.60
2007,04,06,16,57,17.60
2007,04,06,16,58,17.50
2007,04,06,16,59,17.50
2007,04,06,17,00,17.50
2007,04,06,17,01,17.50
2007,04,06,17,02,17.50
2007,04,06,17,03,17.50
2007,04,06,17,04,17.50
2007,04,06,17,05,17.50
2007,04,06,17,06,17.50
2007,04,06,17,07,17.50
2007,04,06,17,08,17.40
2007,04,06,17,09,17.40
2007,04,06,17,10,17.30
2007,04,06,17,11,17.20
2007,04,06,17,12,17.10
2007,04,06,17,13,17.00
2007,04,06,17,14,16.90
2007,04,06,17,15,16.80
2007,04,06,17,16,16.70
2007,04,06,17,17,16.60
2007,04,06,17,18,16.60
2007,04,06,17,19,16.50
2007,04,06,17,20,16.50
2007,04,06,17,21,16.40
2007,04,06,17,22,16.30
2007,04,06,17,23,16.30
2007,04,06,17,24,16.30
2007,04,06,17,25,16.30
2007,04,06,17,26,16.30
2007,04,06,17,27,16.20
2007,04,06,17,28,16.20
2007,04,06,17,29,16.20
2007,04,06,17,30,16.20
2007,04,06,17,31,16.30
2007,04,06,17,32,16.30
2007,04,06,17,33,16.30
2007,04,06,17,34,16.30
2007,04,06,17,35,16.30
2007,04,06,17,36,16.40
2007,04,06,17,37,16.40
2007,04,06,17,38,16.40
2007,04,06,17,39,16.50
2007,04,06,17,40,16.50
2007,04,06,17,41,16.60
2007,04,06,17,42,16.60
2007,04,06,17,43,16.60